Abingdon, VA

8:39 AM EDT on September 25, 2017 (GMT -0400)
Virginia Highlands

Weather History for KVJI - December, 2012

Change the Weather History Date:

Friday, December 7, 2012

  Actual Average (KTRI) Record (KTRI)
Temperature  
Mean Temperature 52 °F -  
Max Temperature 63 °F 49 °F 78 °F (1951)
Min Temperature 40 °F 30 °F 4 °F (1977)
Degree Days  
Heating Degree Days 14    
Growing Degree Days 2 (Base 50)    
Moisture  
Dew Point 46 °F    
Average Humidity 88    
Maximum Humidity 100    
Minimum Humidity 65    
Precipitation  
Precipitation 0.01 in - - ()
Sea Level Pressure  
Sea Level Pressure 30.04 in    
Wind  
Wind Speed 4 mph (East)    
Max Wind Speed 8 mph    
Max Gust Speed -    
Visibility 10 miles    
Events      
Averages and records for this station are not official NWS values.
T = Trace of Precipitation, MM = Missing Value Source: NWS Daily Summary

Daily Weather History Graph

Daily Weather History Graph

Search for Another Location

Airport or City:

Trip Planner

Search our weather history database for the weather conditions in past years. The results will help you decide how hot, cold, wet, or windy it might be!

Date:

Astronomy

Dec. 07, 2012 Rise Set
Actual Time 7:27 AM EST 5:11 PM EST
Civil Twilight 6:58 AM EST 5:40 PM EST
Nautical Twilight 6:26 AM EST 6:12 PM EST
Astronomical Twilight 5:55 AM EST 6:44 PM EST
Moon 12:54 AM EST (12/7) 1:00 PM EST (12/7)
Length of Visible Light 10h 41m
Length of Day
9h 44m
Last Quarter, 39% of the Moon is Illuminated
Dec 7
Last Quarter
Dec 13
New
Dec 20
First Quarter
Dec 28
Full
Jan 4
Last Quarter

Hourly Weather History & Observations

Time (EST) Temp. Windchill Dew Point Humidity Pressure Visibility Wind Dir Wind Speed Gust Speed Precip Events Conditions
12:15 AM 46.8 °F - 45.0 °F 93% 30.11 in 10.0 mi East 8.1 mph - N/A   Overcast
12:35 AM 46.0 °F 43.9 °F 44.4 °F 94% 30.11 in 10.0 mi East 4.6 mph - N/A   Overcast
12:55 AM 45.7 °F 42.7 °F 43.9 °F 93% 30.10 in 10.0 mi East 5.8 mph - N/A   Mostly Cloudy
1:15 AM 45.1 °F 41.4 °F 43.7 °F 95% 30.10 in 10.0 mi East 6.9 mph - N/A   Scattered Clouds
1:35 AM 44.6 °F 40.2 °F 43.0 °F 94% 30.09 in 10.0 mi East 8.1 mph - N/A   Clear
1:55 AM 45.0 °F 41.2 °F 43.0 °F 93% 30.09 in 10.0 mi East 6.9 mph - N/A   Clear
2:15 AM 45.1 °F 42.0 °F 43.2 °F 93% 30.09 in 10.0 mi East 5.8 mph - N/A   Clear
2:35 AM 45.0 °F 43.5 °F 43.0 °F 93% 30.10 in 10.0 mi ENE 3.5 mph - N/A   Clear
2:55 AM 44.8 °F 42.4 °F 42.8 °F 93% 30.09 in 10.0 mi East 4.6 mph - N/A   Mostly Cloudy
3:15 AM 44.1 °F 41.5 °F 42.4 °F 94% 30.10 in 10.0 mi East 4.6 mph - N/A   Scattered Clouds
3:35 AM 43.0 °F 39.5 °F 42.1 °F 97% 30.09 in 10.0 mi East 5.8 mph - N/A   Mostly Cloudy
3:55 AM 43.0 °F 38.2 °F 41.9 °F 96% 30.09 in 10.0 mi East 8.1 mph - N/A   Scattered Clouds
4:15 AM 43.7 °F 42.1 °F 41.4 °F 91% 30.09 in 10.0 mi ENE 3.5 mph - N/A   Clear
4:35 AM 42.4 °F 40.7 °F 40.5 °F 93% 30.09 in 10.0 mi East 3.5 mph - N/A   Clear
4:55 AM 42.4 °F - 41.0 °F 95% 30.09 in 10.0 mi Calm Calm - 0.01 in   Clear
5:15 AM 42.3 °F - 41.0 °F 95% 30.09 in 10.0 mi Calm Calm - N/A   Clear
5:35 AM 40.8 °F 38.8 °F 40.6 °F 99% 30.09 in 10.0 mi East 3.5 mph - N/A   Clear
5:55 AM 41.2 °F 38.2 °F 39.7 °F 95% 30.09 in 10.0 mi East 4.6 mph - N/A   Clear
6:15 AM 41.2 °F 38.2 °F 40.3 °F 97% 30.09 in 10.0 mi East 4.6 mph - N/A   Scattered Clouds
6:35 AM 41.4 °F 39.4 °F 40.5 °F 97% 30.09 in 10.0 mi SE 3.5 mph - N/A   Scattered Clouds
6:55 AM 40.6 °F 36.0 °F 40.1 °F 98% 30.10 in 10.0 mi East 6.9 mph - N/A   Scattered Clouds
7:15 AM 40.3 °F 37.1 °F 39.7 °F 98% 30.10 in 10.0 mi East 4.6 mph - N/A   Clear
7:35 AM 41.4 °F 38.4 °F 40.6 °F 97% 30.10 in 10.0 mi ENE 4.6 mph - N/A   Scattered Clouds
7:55 AM 41.9 °F 38.2 °F 40.3 °F 94% 30.10 in 10.0 mi East 5.8 mph - N/A   Scattered Clouds
8:15 AM 42.4 °F 38.1 °F 40.6 °F 93% 30.10 in 10.0 mi East 6.9 mph - N/A   Scattered Clouds
8:35 AM 43.2 °F 41.5 °F 41.0 °F 92% 30.10 in 10.0 mi East 3.5 mph - N/A   Scattered Clouds
8:55 AM 44.1 °F 41.5 °F 41.9 °F 92% 30.10 in 10.0 mi East 4.6 mph - N/A   Overcast
9:15 AM 45.0 °F 41.8 °F 42.1 °F 90% 30.10 in 10.0 mi East 5.8 mph - N/A   Overcast
9:35 AM 45.7 °F 43.4 °F 42.8 °F 90% 30.10 in 10.0 mi ESE 4.6 mph - N/A   Overcast
9:55 AM 47.5 °F - 43.7 °F 87% 30.10 in 10.0 mi East 4.6 mph - N/A   Overcast
10:15 AM 49.3 °F - 44.6 °F 84% 30.10 in 10.0 mi East 4.6 mph - N/A   Overcast
10:35 AM 50.9 °F - 45.3 °F 81% 30.09 in 10.0 mi East 5.8 mph - N/A   Mostly Cloudy
10:55 AM 53.1 °F - 46.9 °F 80% 30.08 in 10.0 mi East 4.6 mph - N/A   Scattered Clouds
11:15 AM 54.7 °F - 48.2 °F 79% 30.08 in 10.0 mi East 3.5 mph - N/A   Scattered Clouds
11:35 AM 56.5 °F - 49.5 °F 77% 30.07 in 10.0 mi Calm Calm - N/A   Clear
11:55 AM 57.7 °F - 50.0 °F 75% 30.06 in 10.0 mi Calm Calm - N/A   Clear
12:15 PM 59.0 °F - 50.9 °F 74% 30.05 in 10.0 mi WNW 4.6 mph - N/A   Clear
12:35 PM 59.0 °F - 50.5 °F 73% 30.05 in 10.0 mi Calm Calm - N/A   Clear
1:15 PM 60.8 °F - 51.6 °F 72% 30.02 in 10.0 mi WSW 5.8 mph - N/A   Clear
1:35 PM 62.1 °F - 52.2 °F 70% 30.02 in 10.0 mi West 6.9 mph - N/A   Clear
2:15 PM 61.9 °F - 51.4 °F 69% 30.00 in 10.0 mi WNW 6.9 mph - N/A   Clear
2:35 PM 62.2 °F - 51.3 °F 67% 29.99 in 10.0 mi West 5.8 mph - N/A   Clear
2:55 PM 61.7 °F - 51.3 °F 69% 29.99 in 10.0 mi West 5.8 mph - N/A   Clear
3:15 PM 61.9 °F - 51.4 °F 69% 29.99 in 10.0 mi WNW 5.8 mph - N/A   Clear
3:35 PM 63.1 °F - 51.3 °F 65% 29.98 in 10.0 mi West 5.8 mph - N/A   Clear
3:55 PM 62.6 °F - 51.1 °F 66% 29.98 in 10.0 mi WNW 4.6 mph - N/A   Clear
4:15 PM 63.3 °F - 51.3 °F 65% 29.98 in 10.0 mi West 3.5 mph - N/A   Clear
4:35 PM 62.1 °F - 50.7 °F 66% 29.98 in 10.0 mi West 3.5 mph - N/A   Clear
4:55 PM 61.0 °F - 50.5 °F 68% 29.98 in 10.0 mi West 3.5 mph - N/A   Clear
5:15 PM 59.9 °F - 50.5 °F 71% 29.98 in 10.0 mi Calm Calm - N/A   Clear
5:35 PM 57.9 °F - 50.0 °F 75% 29.98 in 10.0 mi Calm Calm - N/A   Clear
5:55 PM 55.9 °F - 49.5 °F 79% 29.97 in 10.0 mi Calm Calm - N/A   Clear
6:15 PM 54.0 °F - 49.6 °F 85% 29.98 in 10.0 mi Calm Calm - N/A   Clear
6:35 PM 52.9 °F - 48.9 °F 86% 29.98 in 10.0 mi Calm Calm - N/A   Clear
6:55 PM 52.7 °F - 49.3 °F 88% 29.98 in 10.0 mi Calm Calm - N/A   Scattered Clouds
7:15 PM 50.9 °F - 48.4 °F 91% 29.99 in 10.0 mi Calm Calm - N/A   Clear
7:35 PM 50.7 °F - 48.2 °F 91% 29.98 in 10.0 mi Calm Calm - N/A   Clear
7:55 PM 48.9 °F - 47.3 °F 94% 29.99 in 10.0 mi Calm Calm - N/A   Clear
8:15 PM 49.1 °F - 47.8 °F 95% 29.99 in 10.0 mi Calm Calm - N/A   Clear
8:35 PM 47.5 °F - 46.8 °F 97% 29.99 in 7.0 mi Calm Calm - N/A   Clear
8:55 PM 48.4 °F - 48.0 °F 99% 29.99 in 10.0 mi Calm Calm - N/A   Clear
9:15 PM 47.5 °F - 47.1 °F 99% 29.99 in 7.0 mi Calm Calm - N/A   Clear
9:35 PM 48.2 °F - 48.0 °F 99% 29.99 in 7.0 mi Calm Calm - N/A   Scattered Clouds
9:55 PM 46.4 °F - 46.4 °F 100% 29.99 in 7.0 mi Calm Calm - N/A   Scattered Clouds
10:15 PM 46.9 °F - 46.9 °F 100% 29.99 in 7.0 mi Calm Calm - N/A   Mostly Cloudy
10:35 PM 48.0 °F - 48.0 °F 100% 29.98 in 10.0 mi Calm Calm - N/A   Overcast
10:55 PM 47.8 °F - 47.7 °F 99% 29.99 in 7.0 mi Calm Calm - N/A   Mostly Cloudy
11:15 PM 48.6 °F - 48.4 °F 99% 29.99 in 10.0 mi Calm Calm - N/A   Mostly Cloudy
11:35 PM 47.5 °F - 47.5 °F 100% 29.99 in 7.0 mi Calm Calm - N/A   Scattered Clouds
11:55 PM 47.8 °F - 47.8 °F 100% 29.99 in 7.0 mi Calm Calm - N/A   Overcast